AFL601 UUWW-UWGG

Flight info

Callsign AFL601
Flight time 0h 18m
Altitude 33000
Route KOGOM3X KOGOM L94 USTOK USTOK2Z
Aircraft A320/M-SDE3FGHIRWY/LB1

Departure

Time 2026-04-17 03:42
Airport Vnukovo International Airport (UUWW)

Arrival

Time 2026-04-17 04:01
Airport Nizhny Novgorod / Strigino International Airport (UWGG)
Time Latitude Longitude Altitude Speed Heading
2026-04-17 03:29 55.60020 37.28005 689 ft 0 kts 18°
2026-04-17 03:36 55.60065 37.28021 687 ft 9 kts 355°
2026-04-17 03:36 55.60103 37.27950 689 ft 10 kts 288°
2026-04-17 03:37 55.60078 37.27824 694 ft 11 kts 230°
2026-04-17 03:37 55.60023 37.27744 694 ft 11 kts 216°
2026-04-17 03:37 55.59952 37.27611 694 ft 21 kts 235°
2026-04-17 03:37 55.59887 37.27474 689 ft 23 kts 226°
2026-04-17 03:38 55.59734 37.27173 684 ft 27 kts 228°
2026-04-17 03:38 55.59645 37.27010 679 ft 28 kts 225°
2026-04-17 03:38 55.59522 37.26748 685 ft 27 kts 245°
2026-04-17 03:38 55.59432 37.26352 686 ft 27 kts 248°
2026-04-17 03:39 55.59383 37.26141 689 ft 28 kts 247°
2026-04-17 03:39 55.59310 37.25819 689 ft 29 kts 249°
2026-04-17 03:39 55.59237 37.25481 690 ft 30 kts 249°
2026-04-17 03:39 55.59159 37.25137 691 ft 31 kts 248°
2026-04-17 03:40 55.59079 37.24779 688 ft 32 kts 249°
2026-04-17 03:40 55.58986 37.24515 681 ft 21 kts 187°
2026-04-17 03:40 55.58935 37.24539 689 ft 0 kts 154°
2026-04-17 03:40 55.58923 37.24550 683 ft 9 kts 154°
2026-04-17 03:41 55.58837 37.24674 693 ft 18 kts 108°
2026-04-17 03:41 55.58841 37.24752 697 ft 0 kts 69°
2026-04-17 03:41 55.58851 37.24795 694 ft 22 kts 69°
2026-04-17 03:41 55.59005 37.25483 693 ft 93 kts 68°
2026-04-17 03:42 55.59316 37.26876 691 ft 148 kts 69°
2026-04-17 03:42 55.59735 37.28698 1019 ft 165 kts 69°
2026-04-17 03:42 55.60174 37.30607 1708 ft 170 kts 72°
2026-04-17 03:42 55.60618 37.32570 2339 ft 174 kts 73°
2026-04-17 03:43 55.60992 37.34644 2814 ft 183 kts 91°
2026-04-17 03:43 55.60712 37.36896 3103 ft 199 kts 112°
2026-04-17 03:43 55.60268 37.39355 3395 ft 221 kts 110°
2026-04-17 03:43 55.59800 37.42084 3762 ft 246 kts 110°
2026-04-17 03:44 55.59302 37.45085 4417 ft 259 kts 109°
2026-04-17 03:44 55.58795 37.48196 5267 ft 265 kts 109°
2026-04-17 03:44 55.58283 37.51366 6140 ft 270 kts 109°
2026-04-17 03:44 55.57766 37.54585 6970 ft 274 kts 109°
2026-04-17 03:45 55.57276 37.57850 7807 ft 279 kts 103°
2026-04-17 03:45 55.57211 37.61322 8653 ft 287 kts 85°
2026-04-17 03:45 55.57759 37.64745 9500 ft 294 kts 66°
2026-04-17 03:45 55.58772 37.67924 10344 ft 298 kts 61°
2026-04-17 03:46 55.59831 37.71108 11092 ft 302 kts 61°
2026-04-17 03:46 55.60903 37.74343 11837 ft 307 kts 61°
2026-04-17 03:46 55.61991 37.77632 12579 ft 311 kts 61°
2026-04-17 03:46 55.64079 37.84768 14042 ft 318 kts 76°
2026-04-17 03:47 55.63242 38.00190 16640 ft 323 kts 107°
2026-04-17 03:47 55.61250 38.16044 19145 ft 335 kts 107°
2026-04-17 03:47 55.59068 38.33244 20763 ft 368 kts 108°
2026-04-17 03:47 55.59633 38.51568 22937 ft 402 kts 66°
2026-04-17 03:48 55.65407 38.68920 24813 ft 416 kts 63°
2026-04-17 03:48 55.71219 38.86727 26484 ft 429 kts 62°
2026-04-17 03:48 55.78849 39.03440 28028 ft 443 kts 47°
2026-04-17 03:48 55.86542 39.20808 29397 ft 453 kts 66°
2026-04-17 03:49 55.92280 39.41570 30061 ft 476 kts 64°
2026-04-17 03:49 55.98280 39.63196 30720 ft 488 kts 65°
2026-04-17 03:49 56.04478 39.84698 31918 ft 484 kts 62°
2026-04-17 03:49 56.10728 40.05637 33079 ft 481 kts 63°
2026-04-17 03:50 56.16476 40.27150 33149 ft 471 kts 80°
2026-04-17 03:50 56.16634 40.50658 33183 ft 471 kts 92°
2026-04-17 03:50 56.16625 40.74182 33145 ft 472 kts 92°
2026-04-17 03:51 56.16347 41.20763 32905 ft 474 kts 93°
2026-04-17 03:51 56.16130 41.44744 30624 ft 467 kts 94°
2026-04-17 03:51 56.15900 41.67957 29569 ft 464 kts 94°
2026-04-17 03:51 56.15614 41.90879 28436 ft 455 kts 95°
2026-04-17 03:52 56.15289 42.13424 27338 ft 447 kts 95°
2026-04-17 03:52 56.15023 42.30012 25024 ft 448 kts 95°
2026-04-17 03:52 56.14687 42.50142 22434 ft 439 kts 95°
2026-04-17 03:52 56.14288 42.70985 20767 ft 409 kts 96°
2026-04-17 03:53 56.13870 42.90969 19091 ft 388 kts 96°
2026-04-17 03:53 56.13443 43.10257 17067 ft 375 kts 96°
2026-04-17 03:53 56.14438 43.28700 14720 ft 385 kts 73°
2026-04-17 03:53 56.17821 43.46567 12696 ft 374 kts 74°
2026-04-17 03:54 56.21002 43.63898 10885 ft 354 kts 74°
2026-04-17 03:54 56.23989 43.80196 9805 ft 318 kts 74°
2026-04-17 03:54 56.25018 43.85834 9583 ft 303 kts 75°
2026-04-17 03:54 56.25675 43.89466 9090 ft 306 kts 75°
2026-04-17 03:55 56.26325 43.93078 8753 ft 301 kts 75°
2026-04-17 03:55 56.26977 43.96604 8330 ft 299 kts 70°
2026-04-17 03:55 56.28099 43.99714 7674 ft 298 kts 43°
2026-04-17 03:55 56.29847 44.01646 6997 ft 294 kts 16°
2026-04-17 03:56 56.31844 44.02049 6337 ft 288 kts 350°
2026-04-17 03:56 56.33710 44.00972 5707 ft 279 kts 325°
2026-04-17 03:56 56.35135 43.98718 5112 ft 269 kts 303°
2026-04-17 03:56 56.36101 43.95856 4371 ft 266 kts 288°
2026-04-17 03:57 56.36500 43.92669 3923 ft 252 kts 269°
2026-04-17 03:57 56.36365 43.89673 3483 ft 237 kts 253°
2026-04-17 03:57 56.35791 43.86957 2945 ft 228 kts 239°
2026-04-17 03:57 56.34855 43.84717 2508 ft 217 kts 224°
2026-04-17 03:58 56.33696 43.83103 2223 ft 205 kts 212°
2026-04-17 03:58 56.32434 43.82103 1975 ft 190 kts 199°
2026-04-17 03:58 56.31217 43.81605 1756 ft 171 kts 195°
2026-04-17 03:58 56.30089 43.81193 1495 ft 159 kts 194°
2026-04-17 03:59 56.29055 43.80813 1317 ft 142 kts 194°
2026-04-17 03:59 56.28106 43.80473 1073 ft 137 kts 193°
2026-04-17 03:59 56.27182 43.80098 877 ft 134 kts 192°
2026-04-17 03:59 56.26282 43.79783 716 ft 132 kts 190°
2026-04-17 04:00 56.25375 43.79460 557 ft 132 kts 192°
2026-04-17 04:00 56.24471 43.79130 390 ft 133 kts 192°
2026-04-17 04:00 56.23579 43.78800 265 ft 122 kts 192°
2026-04-17 04:00 56.22898 43.78546 267 ft 75 kts 191°
2026-04-17 04:01 56.22449 43.78381 266 ft 61 kts 191°
2026-04-17 04:01 56.22090 43.78253 267 ft 35 kts 191°
2026-04-17 04:01 56.21951 43.78284 266 ft 18 kts 114°
2026-04-17 04:01 56.21933 43.78414 267 ft 0 kts 100°
2026-04-17 04:02 56.21932 43.78421 267 ft 5 kts 100°
2026-04-17 04:02 56.21922 43.78514 266 ft 8 kts 101°
2026-04-17 04:02 56.21930 43.78711 266 ft 21 kts 82°
2026-04-17 04:02 56.21918 43.78850 266 ft 0 kts 100°